Regional Weather Roundup
Issued by NWS

Home | Current Version | Previous Version | Text Only | Print | Product List | Glossary On
Versions: 1 2 3 4 5 6 7 8 9 10 11 12 13 14 15 16 17 18 19 20 21 22 23 24 25 26 27 28 29 30 31 32 33 34 35 36 37 38 39 40 41 42 43 44 45 46 47 48 49 50
000
ASUS45 KTFX 231419
RWRMT
MONTANA HOURLY WEATHER ROUNDUP
NATIONAL WEATHER SERVICE GREAT FALLS MT
819 AM MDT SAT AUG 23 2014

NOTE: "FAIR" INDICATES FEW OR NO CLOUDS BELOW 12000 FEET WITH NO
SIGNIFICANT WEATHER AND/OR OBSTRUCTIONS TO VISIBILITY.

* THESE STATIONS ARE NOT UNDER NWS QUALITY CONTROL. THEY DO NOT
   REPORT WEATHER SUCH AS PRECIPITATION OR FOG.

MTZ001>007-043-231500-
WEST OF THE DIVIDE
CITY           SKY/WX    TMP DP  RH WIND       PRES   REMARKS
KALISPELL      CLOUDY    52  43  72 N6        30.17S
MISSOULA       LGT RAIN  54  45  72 N10       30.14R
BUTTE          RAIN      45  43  93 NW13      30.11R
MULLAN PASS    PTCLDY    41  37  86 CALM      30.19S
* ESSEX        N/A       49  42  77 S3         N/A
* LINCOLN      N/A       46  45  96 NE3        N/A
* LOOKOUT PASS N/A       45  40  83 N/A        N/A
* POLSON       N/A       49  42  77 N3         N/A
* RONAN APT    PTSUNNY   54  45  72 N/A        N/A
* SEELEY LAKE  N/A       47  45  93 E1         N/A
* THOMP F APT  PTSUNNY   45  43  93 N6G13      N/A
$$

MTZ008-052>055-231500-
SOUTHWEST MONTANA
CITY           SKY/WX    TMP DP  RH WIND       PRES   REMARKS
BOZEMAN        LGT RAIN  48  46  93 NW10      30.03R
DILLON         CLOUDY    46  45  96 NE10      30.06R
W YELLOWSTONE  CLOUDY    46  45  96 S5        30.04F
* THREE FORKS  CLOUDY    48  28  46 N/A        N/A
* BOULDER HILL N/A       41  38  89 N17G23     N/A
* MONIDA PASS  N/A       43  43 100 W6         N/A
* RAYNOLDS PAS N/A       42  42 100 N8         N/A
* WHITEHALL    N/A       47  44  89 N9G19      N/A
* WISE RIVER   N/A       45  40  83 SE7G12     N/A
$$

MTZ009>010-012-014-046-048-049-054-231500-
EAST SLOPES AND CENTRAL MONTANA
CITY           SKY/WX    TMP DP  RH WIND       PRES   REMARKS
CUT BANK       RAIN      45  43  93 N20       30.23R
GREAT FALLS    HVY RAIN  48  48 100 NW15      30.09S VSB 2 1/2
HELENA         RAIN      48  45  89 NW10      30.12S VSB 3
MALMSTROM AFB  RAIN      52  52 100 N21       30.10R
* CONRAD       CLOUDY    46  46 100 NW17G24    N/A
* DEARBORN     N/A       47  45  93 SE2G12     N/A
* EAST GLACIER N/A       41  40  96 NE14G24    N/A
* MONARCH      N/A       44  41  89 NW7        N/A
* PENDROY      N/A       43  43 100 VRB17G24    N/A
* ROGERS PASS  N/A       41  40  96 S5G12      N/A
* SAINT MARY   N/A       41  40  96 NE7G12     N/A
* SWEET GRASS  N/A       45  45 100 N18G23     N/A
* WHITE SULPH  N/A       44  43  96 NW9G17     N/A
$$

MTZ011-013-016-021-035-040-045-047-050-051-231500-
NORTH CENTRAL MONTANA
CITY           SKY/WX    TMP DP  RH WIND       PRES   REMARKS
HAVRE          LGT RAIN  54  52  93 NE20      30.11S
LEWISTOWN      HVY RAIN  54  52  93 N15       30.00R VSB 1 1/2
* FORT BENTON  CLOUDY    55  52  90 N13G24    30.09R VSB 3
* CHESTER      N/A       50  48  93 NE11G19    N/A
* DENTON       N/A       53  52  96 VRB13G18    N/A
* GEYSER       N/A       49  47  93 W11        N/A
* JUDITH GAP   N/A       49  49 100 NW18G32    N/A
$$

MTZ017>020-022>027-061-062-231500-
NORTHEAST MONTANA
CITY           SKY/WX    TMP DP  RH WIND       PRES   REMARKS
GLASGOW        LGT RAIN  55  54  96 NE24G37   30.01S
GLENDIVE       CLOUDY    57  55  93 NE18      29.97F
JORDAN         CLOUDY    57  55  93 NE20G30   29.94F
SIDNEY         CLOUDY    57  55  93 NE15      30.03S
WOLF POINT     RAIN      57  54  90 NE24G31   30.03S VSB 3
* BEAVER HILL  N/A       58  56  93 E27G36     N/A
* CIRCLE       N/A       57  56  96 NE8G17     N/A
* LINDSAY DVD  N/A       57  57 100 NE20G27    N/A
* SACO         N/A       55  53  93 NE19G24    N/A
$$

MTZ028>042-056>058-231500-
SOUTHCENTRAL AND SOUTHEAST MONTANA
CITY           SKY/WX    TMP DP  RH WIND       PRES   REMARKS
BAKER          RAIN      61  59  93 E21G30    29.94F
BILLINGS       RAIN      55  55 100 SW10      29.88F VSB M1/4
LIVINGSTON     RAIN      50  46  86 W6        30.01R VSB 3
MILES CITY     CLOUDY    63  61  93 NE9       29.88F
* LAUREL APT   CLOUDY    55  54  96 N/A        N/A
* ROUNDUP APT  CLOUDY    55  54  96 N11G17     N/A
* ALZADA       N/A       61  61 100 NE10       N/A
* HYSHAM       N/A       60  58  93 E9         N/A
* LAME DEER    N/A       57  57 100 NE4        N/A
* REED POINT   N/A       53  52  96 W6G12      N/A
* ROSCOE HILL  N/A       51  47  86 W4         N/A
$$

REGIONAL REPORTS...DAKOTAS
CITY           SKY/WX    TMP DP  RH WIND       PRES   REMARKS
WILLISTON      LGT RAIN  57  52  83 NE16G22   30.07S
DICKINSON      LGT RAIN  57  57 100 E20       29.98S
BEACH          RAIN      57  57 100 E20G28    29.99R VSB 1 1/2
CROSBY         CLOUDY    54  54 100 NE18G24   30.12F
TIOGA          CLOUDY    54  54 100 E17G23    30.11S
WATFORD CITY   CLOUDY    55  55 100 E14G20    30.02F
BISMARCK       LGT RAIN  61  59  93 E12       30.02S
GRAND FORKS    FOG       61  59  93 N13       30.05R VSB 1/2
FARGO          FOG       68  66  93 NE6       29.99F
BUFFALO SD     CLOUDY    63  61  93 E17G25    29.86F
RAPID CITY     CLOUDY    64  61  90 CALM      29.89F
$$

REGIONAL REPORTS...WYOMING/IDAHO/WASHINGTON
CITY           SKY/WX    TMP DP  RH WIND       PRES   REMARKS
GILLETTE       CLOUDY    61  59  93 SE13      29.90S
SHERIDAN       FOG       61  57  87 NW3       29.87F VSB 3
CODY           CLOUDY    54  52  93 CALM      29.96S
YELLOWSTONE LA CLOUDY    43  41  93 W3        30.11S
SALMON         CLOUDY    52  50  93 CALM      30.06S
MULLAN PASS    PTCLDY    41  37  86 CALM      30.19S
SAND POINT     SUNNY     55  43  64 N14       30.15S
SPOKANE        SUNNY     57  43  60 NE6       30.13S
$$

REGIONAL REPORTS...ALBERTA
CITY           SKY/WX    TMP DP  RH WIND       PRES   REMARKS
CALGARY        SUNNY     46  45  96 N3        30.33S
LETHBRIDGE     FOG       46  45  96 NW13      30.29S
MEDICINE HAT   CLOUDY    52  50  93 N9        30.24R
EDMONTON       PTCLDY    37  37 100 CALM      30.36R
WATERTON GATE  N/A       43  41  93 NW2        N/A
CARDSTON       N/A       43  43 100 NW8        N/A
MILK RIVER     N/A       46  45  96 N17G23     N/A
$$

REGIONAL REPORTS...SASKATCHEWAN
CITY           SKY/WX    TMP DP  RH WIND       PRES   REMARKS
SWIFT CURRENT  CLOUDY    52  50  93 NE14G21   30.20F
REGINA         CLOUDY    54  48  80 NE17      30.21S
VAL MARIE      N/A       54  50  86 NE18       N/A
ASSINIBOIA     N/A       52  48  86 E14        N/A
CORONACH       N/A       52  50  93 NE14       N/A

$$



USA.gov is the U.S. government's official web portal to all federal, state and local government web resources and services.